Regional Weather Roundup
Issued by NWS Wakefield, VA

Home | Current Version | Previous Version | Graphics & Text | Print | Product List | Glossary On
Versions: 1 2 3 4 5 6 7 8 9 10 11 12 13 14 15 16 17 18 19 20 21 22 23 24 25 26 27 28 29 30 31 32 33 34 35 36 37 38 39 40 41 42 43 44 45 46 47 48 49 50
923
ASUS41 KAKQ 211514
RWRAKQ

REGIONAL WEATHER ROUNDUP
NATIONAL WEATHER SERVICE WAKEFIELD VA
1000 AM EST TUE FEB 21 2017

Note: "fair" indicates few or no clouds below 12,000 feet with no
significant weather and/or obstructions to visibility. * = Denotes
station may not report precipitation (e.g., rain,snow,etc.),
thunder or fog.

VAZ042-051-052>054-056-211600-
NORTHERN VIRGINIA

CITY           SKY/WX    TMP DP  RH WIND       PRES   REMARKS
WASH NATIONAL  CLOUDY    47  29  49 S3        30.36F
DULLES         PTSUNNY   46  26  45 S8        30.32F
FORT BELVOIR   MOSUNNY   46  29  50 SE6       30.35S
QUANTICO       MOSUNNY   45  33  63 S5        30.36F
FREDERICKSBRG* MOSUNNY   46  35  65 E5        30.33F
STAFFORD*      CLOUDY    46  33  59 SE3       30.38S
WARRENTON      MOSUNNY   49  28  45 SE5       30.32F
CULPEPER*      CLOUDY    48  35  59 E5        30.33F
MANASSAS*      MOSUNNY   46  30  53 SE8       30.34S
LEESBURG*      PTSUNNY   46  30  53 MISG      30.32F
WINCHESTER     CLOUDY    45  28  53 SE6       30.27F
FRONT ROYAL*   CLOUDY    46  30  53 E3        30.26F
LURAY*         PTSUNNY   48  37  66 SW5       30.25F
$$

VAZ048-049-060>072-079>083-211600-
CENTRAL AND SOUTH CENTRAL VIRGINIA

CITY           SKY/WX    TMP DP  RH WIND       PRES   REMARKS
RICHMOND       CLOUDY    48  37  65 SE5       30.33S
CHESTERFIELD*  FAIR      50  25  37 E3        30.34F
PETERSBURG*    SUNNY     50  37  60 NE3       30.32F
HANOVER        PTSUNNY   48  35  60 SE3       30.35S
TAPPAHANNOCK*  PTSUNNY   49  26  41 E9        30.34S
QUINTON*       FAIR      49  39  67 E3        30.33F
CHARLOTTSVILLE CLOUDY    51  33  50 CALM      30.30F
GORDONSVILLE*  MOSUNNY   49  35  58 CALM      30.31S
ORANGE*        PTSUNNY   46  34  61 CALM      30.33S
LOUISA*        MOSUNNY   52  37  58 SE6       30.30F
BUMPASS*       FAIR      47  35  63 S5        30.33R
FARMVILLE*     CLOUDY    53  38  57 CALM      30.29F
CREWE*         FAIR      51  39  63 CALM      30.31S
FORT PICKETT*  FAIR      51  33  49 E5        30.31S
CHASE CITY*    FAIR      49  36  59 SE5       30.30F
CLARKSVILLE*   FAIR      46  37  71 E3        30.30S
SOUTH HILL*    MOSUNNY   50  40  68 SE3       30.36S
LAWRENCEVILLE* FAIR      51  40  66 SE3       30.31S
EMPORIA*       MOSUNNY   50  37  62 CALM      30.33S
$$

VAZ088>098-211600-
SOUTHEAST VIRGINIA

CITY           SKY/WX    TMP DP  RH WIND       PRES   REMARKS
NORFOLK        MOSUNNY   52  41  66 NE7       30.31F
VIRGINIA BEACH MOSUNNY   51  41  68 E12       30.30F
NORFOLK NAVAL  PTSUNNY   51  40  65 E8        30.33S
WEST POINT*    MOSUNNY   51  37  59 E6        30.35S
SALUDA*        FAIR      45  39  78 E5        30.34S
NEWPORT NEWS   MOSUNNY   50  40  68 E7        30.32F
LANGLEY AFB    PTSUNNY   49  41  74 NE8       30.32F
FORT EUSTIS    CLOUDY    52  38  58 E3        30.30F
WILLIAMSBURG*  PTSUNNY   52  39  62 CALM      30.33F
HR EXEC AP*    FAIR      54  39  58 E9        30.30S
FRANKLIN*      MOSUNNY   51  40  65 E5        30.32S
US460-WAKEFLD  MOSUNNY   50  41  71 VRB6      30.32F
$$

VAZ020-022-025-037-045-211600-
WEST CENTRAL AND SOUTHWEST VIRGINIA

CITY           SKY/WX    TMP DP  RH WIND       PRES   REMARKS
STAUNTON*      CLOUDY    49  32  50 S13       30.28F
WAYNESBORO*    CLOUDY    48  31  51 S5        30.27F
HOT SPRINGS VA CLOUDY    41  30  65 S9        30.22S
LYNCHBURG      CLOUDY    49  32  52 S3        30.30F
DANVILLE       CLOUDY    49  38  65 NE6       30.29F
SOUTH BOSTON*  FAIR      48  36  63 CALM      30.30S
MARTINSVILLE   CLOUDY    48  37  65 CALM      30.31S
ROANOKE        PTSUNNY   48  35  60 SE5       30.30F
BLACKSBURG     CLOUDY    48  37  66 SE8       30.28S
DUBLIN*        PTSUNNY   49  39  70 SE8       30.25F
MARION*        MOSUNNY   54  40  58 E13       30.21F
HILLSVILLE*    CLOUDY    47  40  76 S8G16     30.22S
RICHLANDS*     FAIR      57  39  50 SE10      30.13S
WISE*          MOSUNNY   59  36  41 S10G17    30.12F
ABINGDON*      CLOUDY    62  40  44 S7        30.14F
$$

MDZ021>025-VAZ099-100-211600-
SOUTHERN MARYLAND AND THE DELMARVA PENINSULA

CITY           SKY/WX    TMP DP  RH WIND       PRES   REMARKS
PATUXENT RIVER CLOUDY    42  35  76 E5        30.34S
BAY BRIDGE APT CLOUDY    45  30  57 SE7       30.35F
LEONARDTOWN    PTSUNNY   43  32  65 E5        30.36F
DOVER          SUNNY     45  37  74 SE8       30.34F
GEORGETOWN     SUNNY     49  36  61 E9        30.35F
EASTON         PTSUNNY   46  32  57 SE5       30.38F
CAMBRIDGE      NOT AVBL
SALISBURY      SUNNY     49  36  61 E9        30.34S
OCEAN CITY     SUNNY     48  39  71 E9        30.35S
WALLOPS ISLAND PTSUNNY   49  37  63 E7        30.35R
ACCOMACK*      CLOUDY    51  40  64 E5        30.34R
$$

NCZ012>017-030>032-211600-
NORTH CENTRAL AND EASTERN NORTH CAROLINA

CITY           SKY/WX    TMP DP  RH WIND       PRES   REMARKS
ROANOKE RAPIDS FAIR      52  41  66 E6        30.29F
RALEIGH        CLOUDY    54  34  46 E7        30.28F
ELIZABETH CITY MOSUNNY   55  40  56 E12       30.31S
AHOSKIE*       NOT AVBL
EDENTON*       MOSUNNY   55  41  59 E12G17    30.30F
CURRITUCK*     MOSUNNY   53  39  57 E7        30.31F
KILL DEVIL HLS NOT AVBL
MANTEO         MOSUNNY   53  42  66 E14       30.29S
CAPE HATTERAS  SUNNY     62  50  64 NE8       30.25F
TARBORO*       NOT AVBL
GOLDSBORO      MOSUNNY   55  41  59 E7        30.25F
WASHINGTON     SUNNY     54  43  66 E7        30.28F
GREENVILLE     SUNNY     54  41  62 E8        30.29S
NEW BERN       SUNNY     55  46  71 E7        30.28F
WILMINGTON     MOSUNNY   58  46  64 NE5       30.25S
$$

VAZ048-211600-
ELSEWHERE

CITY           SKY/WX    TMP DP  RH WIND       PRES   REMARKS
HARRISBURG PA  CLOUDY    42  21  43 SE9       30.32F
BALTIMORE      CLOUDY    44  26  49 E7        30.34F
ANNAPOLIS      PTSUNNY   43  29  57 SE3       30.35S
ANDREWS AFB    MOSUNNY   46  29  52 VRB3      30.33F
PHILADELPHIA   PTSUNNY   45  29  53 E7        30.36F
HENDERSON NC   CLOUDY    46  37  70 CALM      30.29F
GREENSBORO     CLOUDY    52  36  54 E9        30.26S
ROCKY MOUNT    PTSUNNY   52  40  63 E6        30.29F
$$

VAZ100-211600-
MARINE

STATION/POSITION TIME  TEMP    WIND        PRES    WAVE   SWELL
                       AIR SEA DIR/SP/G            HT/PER HT/PER
                 (UTC) (F)     (DEG/KT/KT) (MB)    (FT/S) (FT/S)
CAPE MAY NJ      1448   44 42   90/ 10/ 15 1027.4F
LEWES DE         1448   44 42  110/ 11/ 14 1027.5F
OCEAN-CITY-INLET 1448   46 42  100/  5/  7 1027.8F
WACHAPREAGUE VA  1448   48 49   60/  8/ 10 1027.1F
THOMAS POINT MD  1500   40 41   80/  5/  5   N/A
GOOSES REEF MD   1500   40 42   60/  2/  4 1028.1    0
COVE POINT MD    1448   40     360/  2/  2 1028.0F
SOLOMONS ISLAND  1448   41 43  100/  4/  5   N/A
BISHOPS HEAD MD  1448   43 45   70/  6/  7 1027.8F
PINEY POINT MD   1448          130/  5/  6   N/A
POTOMAC MD       1500   42 43   70/  4/  6 1026.7    1/ 2
CAMBRIDGE MD     1448   42 42   50/  3/  5 1027.0F
LEWISETTA VA     1448   42 46  100/  6/  7 1027.3R
RAPPAHANNOCK LGT 1448           10/  6/  6 1027.7F
YORK RVR RNG VA  1448   45      80/  9/ 10 1026.0F
YORKTOWN VA      1448   45 45   70/  5/  6 1026.7F
JAMESTOWN VA     1500   48 50  120/  6/  8   N/A
DOMINION TERM VA 1448   47      70/  7/ 10 1026.9F
KIPTOPEKE VA     1448      46  110/  5/  8   N/A
CHES BAY BRIDGE  1448   46 46   80/ 11/ 12 1026.4F
CAPE HENRY VA    1448   47      70/  9/ 12   N/A
WILLOUBY STN VA  1448   47      80/  7/  8 1027.5F
S CRANEY ISL VA  1448   52     150/  2/  4 1026.1F
CAPE HENRY BUOY  1442      47                N/A     3/ 6
OFFSHORE WE BUOY 1451      47                N/A     3/ 6
64NM E OF VA BCH 1450   51 54   70/ 14/ 17 1025.8F   4/ 7   3/ 7
DUCK PIER NC     1448   49 48   50/ 12/ 14 1025.4F
44100 DUCK FRF   1435      48                N/A     3/ 6
44056 DUCK FRF   1430      48                N/A     3/ 5
OREGON INLET NC  1442   51 51   30/ 11/ 14 1025.2F
HATTERAS NC      1448   54 58   20/ 10/ 15 1024.1F
DIAMOND SHLS NC  1450   64 75   90/ 12/ 16 1024.0F   6/10   5/10
CAPE LOOKOUT NC  1500   55      30/ 15/ 17 1023.8F
$$




USA.gov is the U.S. government's official web portal to all federal, state and local government web resources and services.